Wind_Speed
119 119 118 118 117 117 116 115 115 114 114 113 112 112 111 110 110 109 109 108 108 107 107 107 106 105 105 104 103 102 101 101 100 99 99 98 97 96 95 94 93 92 90 89 87 85 84 82 81 79 77 76 74 72 70 69 68 67 66 65 64 63 62 61 60 60 59 58 58 57 57 57 57 57 57 57 56 56 55 54 53 52 51 50 49 49
118 118 118 117 117 116 116 115 114 114 114 113 112 112 111 110 110 109 108 107 107 106 106 106 105 104 104 103 102 101 101 100 99 98 98 97 96 95 94 93 91 90 89 87 86 84 83 81 80 79 77 75 73 71 70 68 68 67 66 65 64 63 62 61 61 60 60 59 59 58 58 58 58 57 57 57 57 56 55 54 53 52 51 50 49 49
117 117 117 116 116 116 115 115 114 113 113 113 112 111 110 110 109 108 107 107 106 105 105 104 104 104 103 102 101 100 100 99 98 97 96 95 94 93 92 91 90 89 87 86 85 83 82 81 80 78 77 75 73 71 70 69 68 67 66 66 65 63 62 62 61 61 60 60 60 59 59 59 58 58 58 58 57 56 55 54 53 52 51 50 50 49
117 116 116 116 115 115 115 114 114 113 112 112 111 110 110 109 108 107 106 105 105 104 104 103 103 102 102 101 100 99 98 97 96 96 95 94 93 92 90 89 88 87 86 85 84 83 82 81 79 78 77 75 74 72 70 69 68 67 67 66 65 64 63 62 62 62 61 61 61 60 60 60 59 59 59 58 57 57 56 54 53 52 51 50 50 49
115 115 115 114 114 114 113 113 112 112 111 110 110 109 108 108 107 106 105 104 103 103 102 101 101 100 100 99 98 97 96 96 95 94 93 92 91 90 89 88 88 87 86 85 84 83 82 81 80 79 77 76 74 73 71 70 69 68 68 67 66 65 64 63 63 63 62 62 62 61 61 61 60 60 59 59 58 57 55 54 53 52 51 50 50 49
114 113 113 113 113 112 112 111 111 110 109 109 108 107 107 106 105 104 103 103 102 101 100 100 99 98 98 97 97 96 95 94 93 93 92 91 90 89 89 88 87 87 86 85 84 83 82 81 80 79 78 77 75 74 72 70 70 69 69 68 67 66 65 64 64 64 64 63 63 62 62 62 61 61 60 59 58 57 55 54 53 52 51 50 50 49
112 111 111 110 110 110 109 109 108 108 107 107 106 105 105 104 103 103 102 101 100 99 99 98 97 97 96 96 95 95 94 93 93 92 91 91 90 89 89 88 88 87 86 86 85 84 83 82 81 80 79 78 76 75 73 71 70 70 70 69 68 67 66 66 65 65 65 64 64 63 63 62 62 61 60 59 58 57 55 54 53 52 51 50 50 49
109 109 108 108 107 107 107 107 106 105 105 104 104 103 103 102 102 101 101 100 99 98 97 97 96 96 96 95 94 94 93 93 92 92 91 91 90 90 89 88 88 87 87 86 85 85 84 83 82 81 80 79 78 76 74 73 72 71 71 70 69 68 67 67 67 66 66 66 65 65 64 63 63 62 61 59 58 56 55 54 53 52 51 50 49 49
106 106 106 105 105 105 105 104 104 103 103 102 102 102 101 101 101 100 100 99 98 97 96 96 96 95 95 94 94 93 93 93 92 92 91 91 90 90 89 89 88 88 87 87 86 85 85 84 83 82 81 80 79 77 75 74 73 72 72 71 71 70 69 68 68 67 67 67 66 65 65 64 63 62 61 59 58 56 55 54 52 52 51 50 49 49
104 104 103 103 103 103 103 103 103 102 102 101 101 100 100 100 99 99 99 98 97 96 95 95 94 94 94 93 93 92 92 92 91 91 90 90 90 89 89 89 88 88 87 87 86 86 85 84 83 83 82 81 79 78 76 74 74 73 73 72 72 71 70 69 69 68 68 67 67 66 65 64 63 62 61 59 58 56 54 53 52 51 51 50 49 49
102 102 102 102 101 101 101 101 100 100 100 99 99 98 98 97 97 97 96 96 95 94 93 92 92 91 91 91 91 90 90 90 89 89 89 89 89 88 88 88 88 87 87 87 86 85 85 84 83 83 82 81 80 78 76 75 74 74 74 73 73 72 71 70 70 69 69 68 67 67 66 65 64 62 61 59 57 55 54 53 52 51 50 50 49 49
100 100 99 99 99 98 98 98 97 97 96 96 96 95 95 95 94 93 93 93 92 91 90 89 88 88 88 87 87 87 87 87 87 86 86 86 86 86 86 86 86 86 86 85 85 85 84 83 83 82 81 80 79 78 76 75 74 74 74 74 73 72 72 71 70 70 69 68 68 67 66 65 63 62 60 58 57 55 54 53 52 51 50 50 49 49
96 95 95 94 94 94 93 93 93 92 92 92 91 91 91 91 90 89 89 89 88 87 86 85 85 84 84 83 83 83 83 83 83 83 83 83 84 84 84 84 84 84 84 84 84 83 83 82 82 81 80 79 78 77 76 75 74 74 74 74 73 72 72 71 70 70 69 69 68 67 66 64 63 61 60 58 56 55 53 52 51 51 50 50 49 49
89 89 88 88 88 88 88 87 87 87 87 87 87 87 87 86 86 86 85 85 84 84 82 81 81 80 80 79 79 79 79 79 79 80 80 80 81 81 81 81 82 82 82 82 82 81 81 80 80 79 79 78 77 76 75 74 74 74 74 73 73 72 71 71 70 70 69 68 67 66 65 64 62 61 59 57 56 54 53 52 51 51 50 50 50 49
83 82 82 82 82 82 82 82 82 82 82 82 82 82 82 82 82 82 81 81 81 80 79 78 78 77 77 76 76 75 75 76 76 76 77 77 78 78 78 78 79 79 79 79 79 79 79 78 78 78 77 76 75 74 73 73 73 73 73 73 72 71 71 70 70 69 69 68 67 66 65 63 62 60 58 56 55 54 53 52 51 51 50 50 50 50
77 77 77 78 78 78 78 77 77 78 78 78 78 78 78 78 78 78 78 78 77 77 76 75 75 74 74 73 73 72 72 73 73 74 74 75 75 75 75 76 76 77 77 77 77 77 76 76 76 76 75 74 74 72 72 72 72 72 72 71 71 70 70 69 69 68 68 67 66 65 64 62 61 59 57 56 54 53 52 52 51 51 50 50 50 50
74 75 75 75 75 75 75 74 74 74 75 75 75 75 75 75 75 75 75 75 74 74 73 73 72 72 72 71 70 70 69 70 71 71 72 73 73 73 73 73 74 74 74 74 74 74 74 74 74 73 73 72 71 71 70 71 71 71 71 70 70 69 69 68 68 67 67 66 65 64 62 61 59 58 56 55 54 53 52 51 51 51 51 51 50 50
73 74 74 74 73 73 73 73 73 73 72 72 72 72 72 72 72 72 72 72 72 71 71 71 70 70 70 69 68 67 67 67 68 69 70 71 71 71 71 71 72 72 72 72 72 72 72 72 72 71 71 70 69 69 69 69 69 69 69 68 68 68 67 67 67 66 65 65 63 62 61 60 58 57 55 54 53 52 52 51 51 51 51 51 51 50
73 73 73 73 73 72 72 72 72 71 71 71 71 70 70 70 70 70 70 70 70 69 69 69 68 68 68 67 67 66 65 65 66 67 68 69 69 69 69 69 69 70 70 70 70 70 70 70 70 69 69 68 68 68 68 68 68 67 67 67 67 66 66 65 65 64 64 63 62 61 60 58 57 56 54 53 53 52 52 51 51 51 51 51 51 50
72 72 72 72 72 71 71 71 71 70 70 70 69 69 69 69 69 68 68 68 68 68 67 67 67 67 66 66 65 64 63 64 64 66 67 67 68 68 67 67 68 68 69 69 68 68 68 68 68 67 67 67 66 66 66 66 66 66 65 65 65 65 64 64 63 63 62 61 60 59 58 57 56 55 54 53 52 52 52 51 51 51 51 51 51 50
71 72 71 71 71 71 71 70 70 69 69 68 68 68 68 68 67 67 67 67 66 66 66 66 66 65 65 65 64 63 63 62 63 64 65 66 66 66 66 66 66 66 67 67 67 66 66 66 66 66 65 65 65 65 64 64 64 64 64 63 63 63 63 62 62 61 60 60 59 58 56 55 54 54 53 52 52 52 52 51 51 51 51 51 50 50
70 71 71 70 70 70 70 69 68 68 67 67 66 66 66 66 66 66 66 65 65 65 65 64 64 64 64 64 64 63 62 62 62 63 64 65 65 65 64 64 64 65 65 65 65 65 64 64 64 64 64 63 63 63 63 62 62 62 62 62 62 61 61 60 60 59 59 58 57 56 55 54 53 53 52 52 52 52 51 51 51 51 51 50 50 50
69 70 70 70 69 69 68 68 67 66 66 65 65 65 64 65 65 65 65 65 64 64 63 63 63 63 63 63 63 62 61 61 61 62 63 64 64 64 63 63 63 63 64 64 63 63 63 63 63 62 62 62 61 61 61 61 61 61 60 60 60 59 59 59 58 57 57 56 55 54 54 53 53 52 52 52 52 51 51 51 51 51 50 50 50 50
68 69 69 69 68 68 67 67 66 65 64 64 63 63 63 63 63 64 64 63 63 63 62 62 62 62 62 62 62 61 61 60 60 61 62 63 63 63 62 62 62 62 62 62 61 61 61 61 61 61 60 60 60 60 59 59 59 59 59 58 58 58 57 57 56 56 55 54 54 53 53 52 52 52 52 51 51 51 51 51 51 50 50 50 50 50
67 67 67 67 67 66 66 65 65 64 63 63 62 62 62 62 62 62 63 62 62 61 61 61 61 62 62 61 61 61 60 60 60 60 61 62 62 62 61 60 60 60 60 60 60 60 60 60 60 59 59 59 58 58 58 58 58 57 57 57 56 56 55 55 54 54 53 53 52 52 52 51 51 51 51 51 51 51 51 51 50 50 50 50 50 50
66 66 66 66 65 64 64 64 63 63 62 62 62 61 61 61 61 61 61 61 61 60 60 60 61 61 61 61 61 61 60 59 59 60 60 61 61 61 60 59 59 59 59 59 59 58 59 58 58 58 57 57 57 57 56 56 56 56 55 55 54 54 54 53 53 52 52 52 51 51 51 51 51 51 51 51 51 51 51 51 50 50 50 50 50 50
65 65 65 64 64 63 62 62 62 61 61 61 61 60 60 60 60 60 60 60 60 59 59 60 60 60 60 60 60 60 59 59 59 59 59 59 60 60 59 58 57 57 58 57 57 57 57 57 57 56 56 56 55 55 55 55 54 54 54 53 53 52 52 52 51 51 51 51 51 51 51 51 51 51 51 51 51 51 50 50 50 50 49 50 50 50
64 64 64 63 63 62 61 60 60 60 60 60 60 60 59 59 59 59 59 59 58 58 59 59 59 59 59 59 60 59 59 58 58 58 58 58 58 58 58 57 56 56 56 56 56 56 56 56 55 55 55 54 54 54 53 53 53 52 52 51 51 51 51 50 50 50 50 50 50 50 50 51 51 51 51 51 51 50 50 50 50 49 49 50 50 50
63 63 63 63 62 61 60 59 59 59 59 59 59 59 59 58 58 58 58 58 57 58 58 58 58 58 58 59 59 59 59 58 57 56 56 57 57 57 56 55 55 55 54 54 54 54 54 54 54 54 54 53 53 52 52 52 51 51 50 50 50 50 50 49 49 49 49 49 50 50 50 50 51 51 51 51 50 50 50 50 49 49 49 49 50 50
61 62 62 62 61 60 59 58 58 58 58 58 59 58 58 58 57 57 57 57 57 57 57 57 57 57 57 58 58 58 58 57 56 55 55 55 56 55 54 54 53 53 52 52 53 53 53 53 53 53 52 52 51 51 51 50 50 49 49 49 49 49 49 49 49 49 49 49 49 50 50 50 50 50 50 50 50 50 49 49 49 49 49 49 50 50
60 60 61 61 61 60 59 58 58 57 57 58 58 58 57 57 57 56 56 56 56 56 56 56 56 56 56 57 57 58 58 56 55 54 54 54 54 54 53 53 52 51 51 51 51 52 52 52 52 51 51 50 50 50 49 49 48 48 48 48 48 48 48 48 48 48 49 49 49 50 50 50 50 50 50 49 49 49 49 49 49 49 49 49 49 50
59 59 60 60 60 60 59 58 57 57 57 57 57 57 57 56 56 56 56 55 55 55 55 55 55 55 55 56 56 57 57 55 54 53 52 53 53 52 52 51 50 50 49 49 49 50 51 51 51 50 50 49 49 48 48 47 47 47 47 47 47 48 48 48 48 48 49 49 49 50 50 50 49 49 49 49 49 49 49 49 48 48 48 49 49 49
59 59 59 59 59 59 59 58 57 56 56 56 56 56 56 56 55 55 55 55 55 55 55 55 55 55 55 55 55 56 55 54 53 52 51 52 52 51 50 49 49 48 48 48 48 48 49 49 50 49 49 48 48 48 47 47 46 46 46 47 47 47 47 48 48 48 49 49 49 49 49 49 49 48 48 48 48 48 48 48 48 48 48 48 49 49
58 58 58 58 58 58 58 57 57 56 55 55 55 55 55 55 55 55 55 54 54 54 54 54 54 54 54 54 55 55 54 53 52 51 50 50 50 50 49 48 47 47 46 46 47 47 48 48 48 48 48 48 47 47 46 46 46 46 46 47 47 47 47 48 48 48 48 49 49 49 49 48 48 48 47 47 48 48 48 48 48 48 48 48 49 49
58 58 58 58 58 57 57 56 56 55 55 55 55 55 55 55 54 54 54 54 54 53 53 53 53 53 53 54 54 54 53 52 50 49 49 49 49 48 47 47 46 45 45 45 46 46 46 47 47 48 48 48 47 47 46 46 46 46 46 47 47 47 47 48 48 48 48 48 48 48 48 47 47 47 47 47 47 48 48 48 49 49 49 49 48 49
57 57 57 57 57 57 56 56 55 54 54 54 54 54 54 54 54 54 54 53 53 53 53 53 53 53 53 53 53 53 52 51 49 48 48 48 47 47 46 45 45 44 44 44 45 45 45 46 46 47 47 47 47 47 47 46 46 46 47 47 47 47 47 47 47 47 47 47 47 47 47 47 47 47 47 47 47 48 48 49 49 49 49 49 49 49
56 56 57 57 57 56 56 55 54 54 53 53 53 53 53 53 53 53 53 53 53 53 52 52 52 52 52 52 52 52 51 50 49 48 47 46 46 46 45 44 43 43 43 43 44 44 44 45 46 46 47 47 48 48 47 47 47 47 47 47 47 47 47 47 47 47 47 47 47 47 47 46 46 47 47 47 47 48 48 49 49 49 49 49 49 49
55 55 56 56 56 56 55 54 53 53 53 53 53 53 53 53 52 52 52 52 52 52 52 52 52 52 52 51 51 51 50 49 48 47 46 45 45 44 44 43 43 42 42 42 43 43 44 45 45 46 46 47 48 48 48 48 48 48 47 47 47 47 47 47 47 47 47 47 47 47 47 47 47 47 47 47 48 48 49 49 50 50 50 50 50 50
55 55 55 55 55 54 54 54 53 52 52 52 52 52 52 52 52 52 52 52 52 52 52 52 51 51 51 51 51 50 49 49 47 46 45 44 44 43 43 43 42 42 42 42 42 43 44 45 45 46 46 47 48 48 48 48 49 49 48 48 47 47 47 47 47 47 46 47 47 47 47 47 47 47 47 48 48 49 49 50 50 51 51 51 52 52
55 55 54 54 54 53 53 53 52 52 51 51 51 51 51 51 51 51 51 51 51 51 51 51 51 51 51 51 50 50 49 48 47 46 45 44 43 43 42 42 42 42 42 42 42 43 44 44 45 46 46 47 47 48 49 49 49 49 49 48 48 48 48 47 47 47 47 47 47 47 47 47 47 48 48 48 49 49 50 51 51 51 52 52 53 53
55 55 54 54 53 53 52 52 52 51 51 51 51 51 51 50 50 50 50 50 50 51 51 51 51 51 51 50 50 49 48 47 46 46 45 44 43 42 42 42 42 42 42 42 43 43 44 45 45 46 46 47 47 48 49 49 50 49 49 49 49 48 48 48 48 47 47 47 47 47 48 48 48 48 49 49 50 50 51 51 52 53 53 53 54 54
55 55 54 53 53 52 52 51 51 51 51 50 50 50 50 49 49 49 49 49 50 50 50 50 51 51 51 50 50 49 48 47 46 45 45 44 43 43 42 42 42 42 42 42 43 44 44 45 45 46 46 47 47 48 49 50 50 50 49 49 49 49 49 49 48 48 48 47 47 48 48 48 48 49 49 50 51 51 52 52 53 54 54 55 55 55
55 54 54 53 52 52 51 51 50 50 50 50 50 49 49 48 48 48 48 49 49 50 50 50 50 50 51 50 50 49 48 47 46 45 45 44 44 43 42 42 42 42 42 43 44 44 45 45 46 46 46 47 47 48 49 50 50 50 50 49 49 49 49 50 49 49 48 48 48 48 48 49 49 49 50 50 51 52 52 53 54 55 55 56 56 56
54 54 53 53 52 51 51 50 50 49 49 49 49 49 48 48 47 47 48 48 48 49 49 50 50 50 51 50 50 49 47 47 46 46 45 45 44 43 43 42 42 42 43 44 44 45 45 45 46 46 46 47 47 48 49 50 50 50 50 49 49 49 50 50 50 49 49 49 49 49 49 49 49 49 50 51 52 53 54 54 55 56 56 57 57 57
54 53 53 52 51 51 50 50 49 49 49 49 48 48 48 47 47 47 47 47 48 48 49 49 50 50 51 50 49 48 47 47 46 46 45 45 44 44 43 43 43 43 43 44 44 45 45 46 46 46 46 47 48 49 49 50 50 50 50 50 50 50 50 50 50 50 50 50 50 49 49 49 50 50 51 52 53 54 55 55 56 57 57 58 58 59
53 53 52 52 51 50 50 49 49 49 48 48 48 47 47 47 46 46 46 47 47 48 48 49 49 50 50 50 49 48 48 47 46 46 46 45 45 44 44 43 43 43 44 44 45 45 45 46 46 46 47 47 48 49 50 50 50 50 50 50 50 50 50 50 50 50 50 50 50 50 50 50 51 51 52 53 54 55 55 56 57 58 59 59 60 60
53 53 52 51 51 50 49 49 49 48 48 48 47 47 46 46 46 46 46 46 46 47 48 48 49 50 50 50 49 48 48 47 46 46 46 45 45 45 44 44 43 43 44 44 44 45 46 46 46 47 47 48 49 49 50 50 50 50 51 51 50 50 51 51 50 50 50 50 50 51 51 51 52 52 53 54 54 55 56 57 58 59 60 60 61 61
53 52 51 50 50 49 49 48 48 48 48 47 47 46 46 45 45 45 45 45 46 46 47 48 49 49 49 49 49 48 48 47 46 46 46 46 45 45 44 44 44 44 44 44 45 45 46 46 47 47 48 49 49 50 50 50 50 50 51 51 51 51 51 51 51 50 50 50 51 51 51 52 53 53 54 54 55 56 57 58 59 60 61 62 62 62
52 52 51 50 49 49 48 48 48 47 47 47 46 46 45 45 45 44 44 45 45 46 47 47 48 49 49 49 48 48 47 47 46 46 46 46 45 45 45 44 44 44 44 45 45 45 46 47 47 48 49 49 50 50 50 50 50 51 51 51 51 51 51 51 51 51 51 51 51 52 52 53 53 54 54 55 56 57 57 59 60 61 62 63 63 63
52 51 51 50 49 48 48 47 47 47 47 46 46 45 45 44 44 44 44 44 44 45 46 47 48 48 48 48 48 47 47 47 46 46 46 46 45 45 45 45 44 44 45 45 45 46 47 48 48 49 49 50 50 50 51 51 51 51 51 51 51 51 51 51 51 51 51 52 52 53 53 54 54 54 55 55 56 56 57 59 60 62 63 64 64 64
51 51 50 50 49 48 47 47 47 47 47 46 46 45 44 44 44 43 43 44 44 45 45 46 47 47 48 48 48 47 47 47 46 46 46 45 45 45 45 45 45 45 45 45 46 47 47 48 49 50 50 50 50 50 51 51 51 51 52 51 51 51 51 52 52 52 52 52 53 53 54 55 55 55 55 56 56 56 57 59 61 63 64 64 64 64
Wind_Direction
278 278 278 278 279 279 279 279 279 280 280 280 280 280 280 280 280 280 280 280 281 281 281 281 281 281 281 281 281 281 282 282 282 282 282 282 282 282 282 283 283 283 283 283 283 283 283 283 283 283 284 284 284 284 283 283 283 283 282 282 281 281 280 280 279 279 278 278 278 278 278 279 280 280 281 282 282 282 281 279 277 275 273 270 269 267
278 278 278 278 278 279 279 279 279 279 280 280 280 280 280 280 280 280 280 280 280 280 280 280 280 280 281 281 281 281 281 281 281 281 281 281 281 281 281 281 282 282 282 282 282 282 282 282 282 282 282 282 282 282 282 282 282 281 281 281 280 280 279 279 278 278 278 278 277 278 278 279 279 280 281 281 281 281 280 278 276 273 271 269 267 266
278 278 278 278 278 279 279 279 279 279 279 280 280 280 280 280 280 280 280 280 280 280 280 280 280 280 280 280 280 280 280 280 280 280 280 280 280 280 280 280 280 280 281 281 281 281 281 281 281 281 281 281 281 281 281 281 280 280 280 279 279 279 278 278 278 277 277 277 277 277 278 278 279 280 280 281 281 280 278 276 274 272 269 268 266 265
278 278 278 278 278 279 279 279 279 279 279 279 279 280 280 279 279 279 279 279 279 279 279 279 279 279 279 279 279 279 279 279 279 279 279 279 279 279 279 279 279 279 279 279 279 279 280 280 280 280 280 280 280 280 280 280 279 279 279 278 278 278 277 277 277 276 276 276 277 277 277 278 279 279 280 280 279 278 277 275 272 270 268 266 265 264
278 278 278 278 279 279 279 279 279 279 279 279 279 279 279 279 279 279 279 279 279 279 279 278 278 278 278 278 278 278 278 278 278 278 278 278 278 278 278 278 278 278 278 278 278 279 278 279 279 279 279 279 279 279 278 278 278 278 278 277 277 277 277 276 276 276 276 276 276 277 277 278 278 279 279 279 278 277 275 273 271 268 266 265 264 264
278 278 278 278 279 279 279 279 279 279 279 279 279 279 279 279 279 279 279 278 278 278 278 278 278 278 278 278 278 278 278 277 277 277 277 277 277 277 277 277 277 277 277 277 277 277 277 277 278 278 278 278 277 277 277 277 277 277 276 276 276 276 276 276 275 275 275 276 276 276 277 277 278 278 278 278 277 276 274 271 269 267 265 264 263 263
278 278 278 279 279 279 279 279 279 279 279 279 279 279 279 279 278 278 278 278 278 278 277 277 277 277 277 277 277 277 277 277 276 276 276 276 276 276 276 276 276 276 276 276 276 276 276 276 276 276 276 276 276 276 276 276 276 276 275 275 275 275 275 275 275 275 275 275 275 276 276 277 277 277 277 277 276 274 272 270 267 265 264 263 262 262
278 278 278 278 278 279 279 279 279 279 279 279 279 279 278 278 278 278 278 277 277 277 277 277 277 276 276 276 276 276 276 276 276 275 275 275 275 275 275 275 275 275 275 275 275 275 275 275 275 275 275 275 275 275 275 275 275 274 274 274 274 274 274 274 274 274 274 275 275 275 276 276 277 276 276 276 274 272 270 268 266 264 262 262 261 261
278 278 278 278 278 278 278 278 278 278 278 278 278 278 278 278 278 277 277 277 277 276 276 276 276 276 275 275 275 275 275 275 275 275 274 274 274 274 274 274 274 274 274 274 274 274 274 274 274 274 274 274 274 274 274 274 274 274 273 273 273 273 273 273 273 274 274 274 275 275 275 276 276 275 275 274 273 271 268 266 264 262 261 261 260 261
278 278 278 278 278 278 278 278 278 278 278 278 278 277 277 277 277 277 277 276 276 276 276 275 275 275 275 275 274 274 274 274 274 274 274 273 273 273 273 273 273 273 273 273 273 273 273 273 273 273 273 273 273 273 273 273 273 273 272 272 272 272 272 272 273 273 273 274 274 274 275 275 275 274 274 273 271 269 267 264 262 261 260 260 260 260
278 278 278 278 278 278 278 278 278 278 278 277 277 277 277 277 276 276 276 276 276 275 275 275 274 274 274 274 274 274 273 273 273 273 273 273 273 272 272 272 272 272 272 272 272 272 272 272 272 272 272 272 272 272 272 272 272 271 271 271 271 271 271 272 272 272 273 273 273 274 274 274 274 273 272 271 269 267 265 263 261 260 259 259 259 259
278 278 278 278 278 278 278 277 277 277 277 277 277 277 276 276 276 276 276 275 275 275 275 274 274 274 273 273 273 273 273 273 272 272 272 272 272 272 271 271 271 271 271 271 271 271 271 271 271 271 271 271 271 271 271 271 271 270 270 270 270 270 271 271 271 271 272 272 272 273 273 273 272 272 271 269 267 265 263 261 260 258 258 258 258 258
278 278 278 278 278 278 278 277 277 277 277 277 277 276 276 276 276 275 275 275 275 274 274 274 274 273 273 273 273 273 272 272 272 272 272 271 271 271 271 271 271 270 270 270 270 270 270 270 270 270 270 270 270 270 270 270 269 269 269 269 269 269 270 270 270 270 271 271 271 271 272 271 271 270 269 267 265 263 261 260 258 258 257 257 258 258
278 278 278 278 278 278 277 277 277 277 277 277 277 276 276 276 276 275 275 274 274 274 274 274 273 273 273 272 272 272 272 272 272 272 271 271 271 271 270 270 270 270 270 270 270 270 269 269 269 269 269 269 269 269 269 269 268 268 268 268 268 268 269 269 269 269 270 270 270 270 270 270 269 269 267 266 264 262 260 258 258 257 257 257 257 258
278 278 278 278 278 278 278 278 278 278 277 277 277 277 277 276 276 275 275 274 274 274 274 273 273 272 272 272 272 272 272 272 272 272 271 271 271 270 270 270 270 270 269 269 269 269 269 269 269 268 268 268 268 268 268 268 267 267 267 267 267 267 268 268 268 268 269 269 269 269 269 268 268 267 265 264 262 260 259 258 257 257 257 257 258 258
278 278 278 278 278 278 278 278 278 278 278 278 278 278 277 277 276 276 275 275 274 274 273 273 272 272 272 272 272 272 272 272 272 272 271 271 271 270 270 270 270 269 269 269 269 269 268 268 268 268 268 267 267 267 267 266 266 266 266 266 266 266 266 267 267 267 267 267 268 268 267 267 266 265 263 262 260 259 257 257 257 257 257 258 258 258
278 278 278 278 278 278 279 279 279 279 279 279 279 279 278 278 277 277 276 275 274 273 273 272 272 272 272 272 272 272 272 272 272 272 271 271 271 270 270 270 270 269 269 269 268 268 268 268 268 267 267 267 266 266 266 265 265 265 265 265 265 265 265 265 266 266 266 266 266 266 266 265 264 263 261 260 258 257 257 256 257 257 257 258 258 259
278 278 278 278 278 278 279 279 279 279 279 280 280 280 280 279 278 277 276 275 274 273 273 272 272 272 272 272 272 272 272 272 272 272 272 271 271 270 270 270 269 269 269 269 268 268 268 267 267 267 266 266 266 265 265 264 264 264 264 264 264 264 264 264 264 264 265 265 265 264 264 263 262 261 259 258 257 256 256 256 256 257 258 258 259 259
278 278 278 278 278 279 279 279 279 279 279 280 280 280 280 280 279 278 277 276 274 273 273 273 272 272 272 273 273 272 272 272 272 272 272 271 271 270 270 269 269 269 269 268 268 267 267 267 266 266 266 265 265 264 264 263 263 263 263 263 263 263 263 263 263 263 263 263 263 262 262 261 260 259 257 256 256 255 255 256 256 257 258 258 259 259
278 278 278 278 278 278 278 279 279 279 279 280 280 281 280 280 280 278 277 276 274 274 273 273 273 273 273 273 273 273 273 272 272 272 272 271 271 270 270 269 269 269 268 268 267 267 267 266 266 266 265 264 264 263 263 263 262 262 262 262 262 262 262 262 262 262 262 261 261 261 260 259 258 257 256 255 255 255 255 256 256 257 258 258 259 259
278 278 278 279 279 279 279 279 279 279 280 280 280 280 280 280 280 279 277 276 274 273 273 273 273 273 274 274 274 273 273 273 272 272 272 272 271 270 270 269 269 268 268 267 267 267 266 266 265 265 264 264 263 263 262 262 262 261 261 261 261 261 260 260 260 260 260 260 259 259 258 257 256 255 254 254 254 255 255 256 257 257 258 259 259 259
279 279 279 279 279 279 279 279 279 279 280 280 280 280 280 280 279 279 277 276 274 273 273 273 273 273 274 274 274 274 273 273 273 272 272 272 271 271 270 269 269 268 268 267 267 266 266 265 265 264 264 263 263 262 262 261 261 260 260 260 260 259 259 259 259 259 258 258 258 257 256 255 254 254 253 253 254 255 255 256 257 258 258 259 259 260
279 279 279 279 279 279 279 280 280 280 280 280 280 279 279 279 279 278 277 276 274 273 273 273 273 273 273 274 274 274 274 273 273 273 273 272 272 271 270 269 269 268 267 267 266 266 265 265 264 263 263 262 262 261 261 260 260 259 259 259 258 258 258 258 257 257 257 256 256 255 254 253 253 253 253 253 254 255 256 257 257 258 259 259 259 260
278 278 278 279 279 279 280 280 280 280 280 280 280 279 279 279 278 277 277 275 274 273 273 273 273 273 274 274 274 274 274 274 274 273 273 273 272 272 271 270 269 268 267 267 266 265 265 264 263 263 262 262 261 261 260 259 259 258 258 258 257 257 257 256 256 256 255 254 254 253 253 252 252 252 253 254 254 255 256 257 258 258 259 259 260 260
278 278 278 279 279 280 280 280 281 281 280 280 280 279 279 278 278 277 276 275 274 273 272 272 273 273 274 274 275 275 274 274 274 274 273 273 272 272 271 270 269 268 267 266 265 265 264 263 263 262 262 261 260 260 259 258 258 257 257 257 256 256 255 255 254 254 253 253 252 252 251 251 252 252 253 254 255 256 257 257 258 258 259 259 259 260
278 278 278 279 279 280 280 280 281 281 281 280 280 279 279 278 277 276 275 274 273 272 272 272 272 273 274 274 275 275 275 274 274 274 273 273 272 272 271 270 269 268 267 266 265 264 263 263 262 262 261 260 259 259 258 258 257 257 256 255 255 254 254 253 253 252 252 251 251 251 251 251 252 252 253 254 255 256 257 258 258 258 259 259 260 260
278 278 279 279 279 280 280 280 280 281 281 280 280 279 279 278 277 276 274 273 273 272 271 272 272 273 274 274 274 275 275 274 274 274 273 273 272 271 271 269 268 267 266 266 265 264 263 262 262 261 260 259 258 258 257 257 256 255 255 254 253 253 252 252 251 251 250 250 250 250 250 251 252 253 254 255 256 257 257 258 258 258 259 259 260 260
278 279 279 279 280 280 280 280 280 280 280 280 280 279 278 278 276 275 274 273 272 271 271 271 272 273 273 274 274 275 275 274 274 274 274 273 272 271 270 269 268 267 266 265 264 263 262 262 261 260 259 258 258 257 256 255 255 254 253 253 252 251 251 250 250 249 249 249 249 250 251 252 253 254 255 256 257 257 258 258 258 259 259 259 260 260
278 279 279 280 280 280 280 280 280 280 280 280 279 279 278 277 276 275 274 273 272 271 270 271 271 272 273 274 275 275 275 274 274 274 274 273 272 271 270 268 267 266 265 264 264 263 262 261 260 259 258 258 257 256 255 254 253 253 252 251 251 250 249 249 249 248 249 249 250 250 251 252 254 255 256 256 257 258 258 258 259 259 259 260 260 261
278 278 279 280 280 280 280 280 280 279 279 279 279 278 278 277 276 275 274 273 271 270 270 270 271 272 273 274 274 275 275 275 275 274 273 272 271 270 269 268 266 265 264 263 263 262 261 260 259 259 258 257 256 255 254 253 252 251 250 250 249 249 248 248 248 248 249 249 250 251 252 253 254 255 256 257 258 258 259 259 259 260 260 261 261 261
277 278 278 279 280 280 280 280 279 279 279 279 278 278 278 277 276 275 274 272 271 270 270 270 271 272 272 273 274 274 275 275 275 274 273 272 271 269 268 267 266 264 263 262 261 261 260 260 259 258 257 256 255 254 253 252 251 250 249 249 248 248 248 248 248 248 249 250 251 252 253 254 255 256 257 258 258 259 260 260 260 261 261 262 262 263
277 277 278 278 279 279 279 279 279 279 279 278 278 278 278 277 276 275 273 272 271 270 270 270 271 271 272 273 273 274 275 275 275 274 273 271 270 269 267 266 264 263 262 261 259 259 259 259 258 257 256 255 254 253 252 251 250 249 248 247 247 247 247 247 248 249 250 251 252 253 254 255 256 257 258 259 260 260 261 262 262 262 263 263 264 264
277 277 277 278 278 279 279 279 279 279 279 278 278 278 278 277 276 274 273 272 271 270 270 270 271 271 272 273 273 274 275 275 275 274 273 271 270 268 267 265 263 262 260 259 258 257 257 257 257 256 255 254 253 252 251 250 249 248 247 247 247 247 247 248 249 250 251 252 254 255 256 256 257 258 259 260 261 262 263 263 264 264 264 265 265 265
277 277 277 277 278 278 278 279 279 279 279 278 278 278 277 276 275 274 273 272 270 270 269 270 270 271 272 273 273 274 274 274 274 274 272 270 269 267 266 264 262 261 259 257 256 255 255 254 254 254 254 253 252 251 250 249 248 248 247 247 248 248 249 250 251 252 253 254 255 256 257 258 259 260 261 262 263 264 265 265 266 266 266 266 266 266
276 277 277 277 277 278 278 278 278 278 278 278 278 277 277 276 275 274 273 271 270 269 269 269 270 271 272 272 273 274 274 274 274 273 271 270 268 267 265 263 261 259 257 256 255 253 253 252 252 252 253 252 252 251 250 249 248 248 248 248 249 250 251 252 253 254 255 256 257 258 259 260 261 262 263 264 265 266 267 267 267 267 267 267 267 267
276 276 276 277 277 277 277 278 278 278 278 278 277 277 277 276 275 274 272 271 270 269 269 269 269 270 271 272 273 273 274 274 273 272 271 269 267 265 264 262 260 258 256 255 253 252 251 251 251 251 251 251 252 251 251 250 249 249 249 250 251 252 253 254 255 256 257 258 259 260 261 262 263 264 265 266 267 268 269 269 269 269 269 269 269 269
275 276 276 277 277 277 277 277 277 277 277 277 277 277 276 276 275 274 272 271 270 269 268 268 269 269 270 271 272 272 273 273 272 271 270 268 266 264 262 260 259 257 255 253 252 251 249 249 249 249 249 250 251 252 252 252 252 251 251 252 253 254 255 256 257 258 259 260 261 262 263 264 265 266 267 268 269 270 270 271 271 271 271 271 272 272
275 275 275 276 276 277 277 277 277 277 277 277 277 276 276 275 275 273 272 271 269 268 268 268 268 269 269 270 271 271 272 272 271 270 269 267 265 263 261 259 257 255 253 252 250 249 248 247 247 247 248 249 250 251 252 253 254 254 254 255 255 256 257 258 259 260 261 262 263 264 265 266 267 268 269 270 271 271 272 272 273 273 274 274 274 275
275 275 275 276 276 276 276 276 276 276 276 276 276 276 276 275 274 273 272 270 269 268 267 267 268 268 269 269 270 270 270 270 270 269 268 266 263 261 259 258 256 254 252 251 249 248 247 246 246 246 247 248 249 251 252 254 255 256 257 257 258 258 259 259 260 261 262 264 265 266 267 268 269 270 271 271 272 273 274 274 275 275 276 277 277 277
276 276 276 276 276 276 276 276 276 276 276 276 276 276 275 275 274 273 271 270 269 268 267 267 267 267 268 269 269 269 269 269 269 268 266 264 262 260 258 256 255 253 252 250 249 247 246 246 246 246 247 248 249 250 252 254 255 257 258 259 259 260 261 261 262 263 264 265 266 267 268 269 270 271 272 272 273 274 275 276 276 277 277 278 279 279
276 276 276 276 276 276 276 276 276 276 276 275 275 275 275 275 274 273 271 270 268 267 266 266 266 267 267 268 268 268 268 268 267 267 265 263 261 259 257 255 254 253 251 250 248 247 246 246 246 246 247 248 249 250 252 254 255 257 258 259 260 261 262 263 264 264 265 266 267 268 269 270 271 272 272 273 274 275 275 276 277 278 278 278 279 280
277 276 276 276 276 276 275 275 275 275 275 275 275 275 275 275 274 273 271 270 268 267 266 266 266 266 267 267 267 267 267 267 266 265 264 262 260 258 256 255 253 252 251 249 248 247 247 246 246 247 247 248 249 250 252 254 256 257 258 259 261 262 263 264 264 265 266 267 267 268 269 270 271 272 273 274 275 275 276 277 278 278 279 279 279 280
276 276 276 276 276 276 275 275 275 275 275 275 275 275 275 275 274 273 271 269 267 266 265 265 265 265 266 266 267 266 266 266 265 264 263 261 260 258 256 254 253 251 250 249 248 248 247 247 247 247 248 249 250 251 253 255 256 257 258 259 261 262 263 264 265 266 267 268 268 269 270 270 271 272 273 275 275 276 277 277 278 278 279 279 280 280
276 276 276 276 276 276 275 275 275 275 275 275 275 275 275 275 274 272 271 269 267 266 265 264 264 265 265 266 266 266 266 265 264 263 262 261 259 258 256 254 253 251 250 249 249 248 248 248 248 248 249 250 251 252 253 255 256 258 259 260 261 262 263 265 266 267 268 268 269 270 270 271 272 273 274 275 276 277 277 278 279 279 280 280 280 281
276 276 276 276 276 275 275 275 275 275 275 275 275 275 275 275 274 272 271 269 267 265 264 264 264 264 264 265 265 266 265 265 264 263 262 260 259 257 256 254 252 251 250 249 249 249 248 248 249 249 250 251 251 252 254 255 257 258 259 260 261 262 263 265 266 267 268 269 270 270 271 272 273 274 275 275 276 277 278 279 279 280 280 280 281 281
276 275 275 275 275 275 275 275 275 274 274 274 275 275 275 274 274 272 271 269 267 265 264 263 263 263 264 264 265 265 265 264 263 262 261 260 259 257 256 254 253 251 250 250 250 249 249 249 250 250 251 251 252 253 254 255 256 258 259 260 261 262 264 265 266 267 268 269 270 271 272 273 273 274 275 276 277 278 278 279 280 280 281 281 281 281
275 275 275 275 275 275 275 274 274 274 274 274 274 275 275 274 274 273 271 269 267 266 264 263 263 263 263 264 264 264 264 264 263 262 261 260 259 257 256 254 253 252 251 250 250 250 250 250 251 251 251 252 252 253 254 255 256 258 259 260 262 263 264 265 266 267 268 269 270 271 272 273 274 274 275 276 277 278 279 279 280 280 281 281 281 282
275 275 275 275 275 274 274 274 274 274 274 274 274 274 274 274 273 273 271 270 268 266 264 263 262 262 263 263 264 264 264 263 263 262 261 260 258 257 256 255 253 252 251 251 251 250 251 251 252 252 252 253 253 254 255 256 257 258 259 260 262 263 264 265 266 267 268 269 270 271 272 273 273 274 275 276 277 278 279 279 280 280 281 281 281 282
275 275 275 274 274 274 274 274 273 273 273 273 273 274 274 273 273 272 271 270 268 266 264 263 263 262 262 263 263 263 263 263 262 262 261 259 258 257 256 254 253 252 252 251 251 251 251 252 252 253 253 253 254 255 256 256 257 258 259 260 262 263 264 266 267 267 268 269 270 271 271 272 273 274 275 276 277 278 279 279 280 280 281 281 281 281
275 275 275 274 274 274 273 273 273 273 273 273 273 273 273 273 273 272 271 270 268 266 265 264 263 262 262 262 262 262 262 262 262 261 260 259 258 257 255 254 253 252 251 251 251 251 251 252 252 253 253 254 254 255 256 257 258 259 260 261 262 263 264 266 267 267 268 269 270 271 272 272 273 274 275 275 276 277 278 279 280 280 281 281 281 281
275 275 275 274 274 273 273 272 272 272 272 272 272 272 272 272 272 271 271 270 268 266 265 264 263 262 262 262 262 262 262 262 261 261 260 259 258 257 255 254 253 252 251 251 251 251 251 252 252 253 254 254 255 256 257 258 259 260 261 262 263 264 265 266 266 267 268 269 270 271 272 272 273 274 274 275 276 277 278 279 280 280 280 281 281 281
Height
10471 10468 10468 10469 10469 10468 10467 10466 10468 10468 10467 10466 10467 10468 10468 10468 10468 10468 10467 10466 10466 10465 10463 10462 10461 10461 10460 10460 10460 10460 10460 10460 10459 10458 10458 10457 10457 10457 10456 10456 10456 10456 10456 10456 10456 10456 10456 10456 10456 10455 10455 10455 10455 10455 10455 10455 10454 10453 10453 10453 10452 10452 10451 10451 10451 10451 10451 10450 10450 10450 10450 10450 10450 10450 10450 10450 10450 10449 10448 10448 10448 10448 10448 10448 10448 10448
10463 10461 10460 10460 10460 10460 10459 10458 10458 10460 10459 10458 10458 10459 10460 10460 10459 10458 10458 10458 10458 10456 10455 10454 10453 10453 10453 10452 10452 10452 10452 10451 10451 10451 10450 10450 10450 10450 10450 10450 10450 10450 10450 10450 10450 10450 10450 10450 10449 10449 10449 10449 10449 10449 10449 10449 10448 10448 10447 10447 10447 10446 10446 10446 10446 10446 10446 10445 10445 10445 10445 10445 10445 10445 10445 10445 10445 10445 10444 10443 10443 10443 10443 10443 10443 10443
10455 10453 10452 10451 10451 10451 10450 10449 10450 10451 10451 10450 10450 10450 10450 10450 10450 10449 10450 10450 10449 10448 10447 10446 10445 10445 10444 10444 10444 10444 10444 10443 10443 10443 10443 10442 10442 10442 10442 10442 10442 10442 10442 10443 10443 10443 10443 10443 10443 10443 10443 10443 10443 10443 10443 10443 10443 10442 10441 10441 10441 10441 10441 10441 10441 10440 10440 10440 10440 10440 10440 10440 10441 10441 10440 10440 10440 10440 10439 10439 10438 10438 10438 10438 10439 10439
10446 10445 10443 10443 10443 10443 10441 10441 10441 10441 10441 10441 10441 10441 10440 10440 10440 10440 10440 10441 10441 10440 10439 10438 10438 10436 10436 10436 10436 10436 10436 10435 10435 10435 10435 10435 10435 10435 10435 10435 10435 10435 10435 10435 10436 10436 10436 10436 10436 10436 10436 10436 10436 10437 10437 10437 10436 10436 10436 10436 10436 10436 10436 10436 10435 10435 10435 10435 10435 10435 10435 10435 10436 10436 10436 10435 10435 10435 10435 10434 10434 10434 10434 10434 10435 10435
10437 10437 10435 10435 10434 10433 10432 10432 10433 10433 10432 10432 10431 10431 10431 10431 10431 10431 10431 10431 10431 10431 10430 10430 10429 10428 10428 10428 10427 10428 10428 10427 10427 10427 10427 10427 10427 10427 10427 10427 10427 10428 10428 10428 10428 10429 10429 10429 10430 10430 10430 10430 10430 10431 10431 10431 10431 10430 10430 10430 10430 10430 10430 10430 10430 10430 10430 10430 10430 10430 10430 10430 10430 10430 10430 10430 10430 10430 10430 10430 10430 10430 10430 10430 10430 10430
10428 10428 10428 10426 10426 10425 10423 10423 10423 10423 10423 10423 10422 10422 10422 10422 10422 10421 10421 10421 10422 10422 10421 10421 10421 10420 10420 10420 10419 10419 10419 10419 10419 10419 10419 10420 10420 10420 10420 10420 10420 10420 10420 10421 10421 10421 10422 10422 10423 10423 10423 10423 10423 10424 10425 10425 10425 10425 10425 10425 10425 10425 10425 10424 10424 10424 10424 10424 10425 10425 10425 10425 10425 10425 10425 10425 10425 10425 10425 10425 10425 10425 10425 10425 10426 10426
10419 10419 10419 10418 10417 10416 10415 10415 10415 10415 10415 10414 10413 10413 10413 10413 10413 10413 10412 10412 10413 10413 10413 10413 10412 10412 10411 10411 10411 10411 10411 10411 10411 10411 10411 10411 10412 10412 10412 10412 10413 10413 10413 10413 10414 10414 10415 10415 10415 10416 10416 10416 10417 10417 10418 10418 10418 10418 10418 10418 10418 10418 10418 10418 10418 10418 10418 10418 10419 10419 10419 10420 10420 10420 10420 10420 10420 10420 10420 10420 10420 10420 10420 10421 10421 10421
10411 10410 10410 10410 10408 10407 10406 10406 10406 10406 10406 10405 10404 10403 10403 10403 10403 10403 10403 10403 10403 10404 10404 10403 10403 10403 10403 10403 10403 10403 10403 10403 10403 10403 10403 10404 10404 10404 10405 10405 10405 10405 10405 10406 10406 10407 10407 10408 10408 10408 10409 10409 10410 10410 10411 10412 10412 10412 10412 10412 10412 10412 10412 10412 10412 10412 10413 10413 10413 10413 10413 10414 10414 10414 10414 10415 10415 10415 10415 10415 10415 10415 10416 10416 10416 10417
10403 10401 10400 10400 10400 10399 10398 10396 10396 10396 10397 10396 10395 10395 10394 10394 10393 10393 10393 10393 10394 10395 10395 10395 10394 10393 10393 10394 10395 10395 10395 10395 10395 10395 10395 10395 10396 10396 10396 10396 10397 10397 10398 10398 10399 10399 10400 10400 10401 10401 10401 10402 10403 10403 10405 10405 10405 10405 10405 10405 10406 10406 10406 10406 10406 10406 10406 10407 10407 10408 10408 10408 10408 10408 10408 10409 10409 10409 10410 10410 10410 10411 10411 10411 10412 10413
10395 10393 10392 10391 10391 10390 10390 10388 10386 10387 10388 10388 10387 10386 10385 10385 10384 10383 10383 10383 10384 10385 10386 10386 10385 10384 10384 10385 10385 10386 10386 10386 10386 10386 10387 10387 10388 10388 10388 10388 10389 10390 10390 10390 10391 10391 10392 10393 10393 10394 10395 10395 10396 10396 10398 10398 10398 10399 10398 10399 10399 10400 10400 10400 10400 10400 10400 10401 10401 10401 10402 10402 10402 10403 10403 10403 10403 10404 10404 10405 10405 10406 10406 10407 10408 10408
10386 10385 10385 10383 10382 10381 10381 10380 10378 10378 10379 10379 10378 10377 10376 10376 10376 10375 10374 10373 10374 10375 10376 10376 10376 10376 10375 10375 10376 10377 10378 10378 10378 10378 10378 10379 10379 10380 10380 10380 10381 10381 10381 10382 10383 10384 10385 10385 10386 10386 10387 10388 10388 10390 10390 10391 10391 10391 10391 10392 10392 10393 10393 10393 10393 10394 10394 10395 10395 10395 10396 10396 10396 10397 10397 10398 10398 10398 10399 10400 10400 10401 10401 10402 10403 10404
10378 10377 10376 10375 10373 10373 10372 10371 10371 10370 10370 10370 10369 10368 10367 10367 10367 10367 10366 10365 10365 10365 10366 10367 10367 10367 10367 10367 10367 10368 10369 10369 10369 10370 10370 10371 10371 10371 10371 10372 10372 10373 10374 10375 10375 10376 10376 10377 10378 10379 10380 10380 10381 10382 10383 10384 10385 10385 10385 10385 10385 10386 10386 10386 10387 10388 10388 10388 10389 10389 10390 10390 10390 10391 10391 10392 10393 10393 10393 10395 10395 10396 10396 10398 10398 10399
10370 10369 10368 10366 10365 10365 10364 10363 10363 10362 10362 10361 10360 10360 10358 10358 10359 10358 10358 10356 10356 10356 10357 10358 10358 10358 10359 10359 10360 10360 10360 10361 10361 10361 10362 10362 10363 10363 10363 10364 10364 10365 10366 10366 10367 10368 10368 10370 10370 10371 10372 10373 10374 10375 10376 10377 10377 10378 10378 10378 10378 10379 10380 10380 10381 10381 10381 10382 10383 10383 10383 10384 10385 10385 10386 10386 10387 10388 10388 10389 10390 10391 10392 10393 10393 10394
10362 10361 10360 10359 10358 10357 10356 10356 10356 10355 10353 10353 10353 10352 10351 10350 10350 10350 10349 10348 10348 10348 10350 10350 10349 10350 10350 10351 10352 10352 10353 10353 10353 10354 10354 10354 10355 10355 10356 10356 10356 10357 10358 10359 10359 10360 10361 10362 10363 10363 10365 10366 10366 10368 10369 10370 10370 10370 10371 10371 10371 10373 10373 10374 10375 10375 10375 10376 10376 10377 10377 10378 10378 10379 10380 10381 10381 10382 10383 10384 10385 10386 10387 10388 10389 10390
10355 10354 10353 10351 10350 10350 10350 10350 10348 10347 10346 10346 10345 10345 10343 10343 10343 10342 10341 10341 10340 10341 10341 10341 10341 10341 10342 10343 10345 10345 10346 10346 10346 10346 10346 10346 10346 10348 10348 10348 10348 10349 10350 10351 10351 10352 10353 10355 10355 10356 10357 10358 10360 10361 10362 10363 10363 10363 10364 10365 10365 10366 10366 10367 10368 10368 10369 10370 10370 10371 10371 10372 10373 10373 10374 10375 10376 10377 10378 10379 10380 10381 10382 10383 10383 10385
10348 10348 10346 10345 10344 10343 10343 10343 10342 10341 10340 10339 10338 10338 10336 10336 10335 10335 10335 10334 10333 10333 10334 10333 10333 10333 10334 10336 10338 10339 10339 10339 10339 10339 10339 10338 10339 10340 10341 10341 10341 10341 10343 10343 10344 10345 10346 10347 10348 10348 10350 10351 10352 10353 10355 10355 10356 10356 10357 10358 10358 10360 10360 10361 10361 10362 10363 10363 10364 10365 10365 10366 10367 10368 10368 10370 10370 10371 10373 10373 10375 10376 10376 10378 10378 10379
10342 10341 10340 10338 10338 10337 10336 10336 10336 10335 10333 10332 10331 10331 10330 10329 10328 10328 10328 10327 10326 10326 10326 10326 10326 10326 10326 10328 10330 10332 10333 10333 10332 10332 10332 10331 10331 10333 10335 10335 10334 10335 10335 10336 10337 10338 10338 10340 10340 10341 10343 10343 10345 10346 10348 10348 10349 10350 10350 10351 10352 10353 10354 10355 10355 10356 10356 10357 10358 10359 10360 10360 10361 10362 10363 10364 10365 10366 10368 10368 10370 10371 10371 10373 10373 10374
10335 10334 10333 10332 10331 10331 10331 10330 10329 10328 10327 10326 10325 10325 10324 10323 10322 10321 10321 10320 10320 10319 10319 10319 10319 10319 10320 10320 10322 10325 10328 10326 10325 10325 10325 10324 10324 10325 10327 10328 10328 10328 10328 10329 10330 10330 10331 10332 10333 10334 10335 10336 10338 10339 10340 10341 10342 10343 10344 10345 10346 10346 10347 10348 10349 10350 10350 10351 10352 10353 10354 10355 10356 10356 10358 10359 10360 10361 10362 10363 10365 10365 10366 10367 10368 10369
10329 10328 10326 10326 10325 10325 10325 10324 10323 10322 10321 10321 10320 10319 10318 10317 10316 10316 10315 10314 10313 10313 10312 10312 10312 10313 10313 10313 10315 10318 10321 10320 10319 10318 10318 10317 10317 10318 10320 10321 10321 10321 10321 10321 10323 10323 10325 10325 10326 10327 10328 10330 10331 10332 10333 10334 10335 10336 10337 10338 10339 10340 10341 10342 10343 10343 10345 10345 10346 10347 10348 10349 10350 10351 10353 10354 10355 10356 10357 10358 10360 10360 10361 10362 10363 10364
10323 10321 10321 10320 10320 10319 10318 10318 10317 10316 10316 10315 10315 10313 10312 10311 10310 10310 10308 10308 10307 10306 10306 10306 10306 10306 10307 10308 10309 10311 10313 10314 10313 10312 10311 10311 10311 10311 10313 10315 10315 10314 10315 10315 10316 10317 10318 10318 10319 10320 10321 10322 10324 10325 10326 10327 10328 10330 10330 10331 10333 10334 10335 10336 10336 10338 10338 10340 10340 10341 10343 10344 10345 10346 10347 10348 10350 10351 10352 10353 10355 10355 10356 10357 10358 10359
10316 10315 10315 10315 10314 10313 10311 10311 10311 10311 10311 10310 10309 10308 10306 10305 10304 10303 10302 10302 10301 10301 10301 10300 10300 10300 10301 10301 10302 10303 10306 10307 10306 10305 10305 10305 10304 10305 10306 10308 10308 10308 10308 10308 10309 10310 10311 10311 10312 10313 10315 10316 10317 10318 10320 10321 10322 10323 10324 10325 10326 10327 10328 10330 10330 10331 10333 10334 10335 10336 10337 10338 10340 10341 10342 10343 10345 10346 10347 10348 10350 10350 10351 10352 10353 10354
10310 10308 10308 10308 10308 10306 10306 10306 10306 10306 10306 10305 10304 10302 10301 10300 10298 10297 10296 10296 10295 10295 10295 10295 10295 10295 10295 10295 10295 10297 10300 10300 10300 10300 10299 10298 10298 10298 10300 10302 10302 10302 10301 10302 10303 10304 10305 10305 10306 10306 10308 10309 10310 10312 10313 10315 10315 10316 10318 10319 10320 10321 10322 10323 10325 10326 10327 10328 10330 10331 10332 10333 10335 10336 10337 10338 10340 10341 10342 10343 10345 10345 10346 10347 10348 10349
10305 10303 10302 10302 10301 10301 10300 10300 10300 10300 10300 10300 10298 10297 10296 10295 10293 10291 10290 10290 10290 10290 10290 10290 10289 10289 10289 10289 10290 10291 10293 10293 10294 10294 10293 10292 10291 10292 10294 10296 10296 10296 10295 10296 10297 10298 10298 10299 10300 10300 10301 10303 10304 10305 10307 10308 10309 10310 10311 10313 10314 10315 10316 10318 10319 10320 10321 10323 10325 10326 10327 10328 10330 10331 10332 10333 10335 10336 10337 10338 10340 10340 10341 10342 10343 10343
10300 10298 10296 10296 10296 10295 10295 10295 10294 10294 10294 10294 10293 10292 10291 10290 10288 10286 10285 10285 10285 10285 10285 10285 10284 10283 10283 10283 10284 10285 10286 10287 10288 10288 10287 10286 10286 10286 10288 10290 10290 10290 10290 10290 10291 10291 10292 10293 10293 10294 10296 10296 10298 10300 10301 10301 10303 10304 10305 10307 10308 10310 10311 10312 10313 10315 10316 10318 10319 10321 10322 10323 10325 10326 10327 10328 10330 10331 10332 10333 10335 10335 10336 10337 10338 10338
10294 10292 10291 10291 10290 10290 10290 10289 10289 10288 10288 10288 10287 10286 10285 10284 10283 10281 10280 10279 10279 10279 10280 10279 10278 10278 10278 10278 10279 10279 10280 10281 10282 10282 10281 10281 10280 10281 10281 10283 10283 10283 10283 10285 10285 10286 10286 10286 10287 10288 10290 10291 10292 10293 10295 10296 10297 10298 10300 10301 10303 10304 10305 10307 10308 10310 10311 10313 10314 10316 10317 10318 10320 10321 10322 10323 10325 10326 10327 10328 10330 10330 10331 10332 10333 10333
10288 10287 10286 10286 10285 10285 10285 10284 10283 10283 10283 10282 10281 10280 10280 10279 10278 10276 10275 10274 10274 10275 10275 10274 10273 10273 10273 10273 10273 10273 10275 10276 10276 10276 10276 10276 10275 10275 10276 10277 10278 10278 10278 10278 10279 10280 10280 10280 10281 10283 10284 10285 10286 10288 10289 10290 10291 10293 10294 10296 10297 10299 10300 10301 10303 10305 10306 10308 10310 10311 10312 10313 10315 10316 10317 10318 10320 10321 10322 10323 10325 10325 10326 10327 10328 10328
10282 10281 10281 10280 10280 10280 10280 10279 10278 10278 10277 10276 10276 10275 10275 10274 10272 10270 10269 10269 10269 10270 10270 10268 10268 10268 10268 10268 10268 10268 10269 10270 10271 10271 10271 10271 10270 10270 10270 10271 10272 10272 10272 10273 10273 10274 10275 10275 10276 10277 10278 10280 10281 10282 10283 10285 10286 10287 10289 10290 10292 10293 10295 10296 10298 10300 10301 10303 10305 10306 10307 10308 10310 10311 10312 10313 10315 10316 10317 10318 10319 10320 10321 10321 10322 10322
10277 10276 10275 10275 10275 10275 10274 10274 10273 10272 10271 10271 10270 10270 10269 10268 10266 10265 10264 10264 10265 10265 10264 10263 10263 10263 10263 10263 10263 10263 10264 10264 10265 10266 10266 10266 10265 10264 10265 10266 10266 10266 10267 10267 10268 10268 10269 10270 10270 10271 10273 10274 10275 10276 10278 10279 10281 10282 10284 10286 10287 10289 10290 10292 10293 10295 10297 10298 10300 10301 10303 10304 10305 10306 10307 10308 10310 10311 10311 10313 10314 10315 10316 10316 10316 10316
10271 10271 10270 10270 10269 10269 10269 10268 10268 10267 10266 10265 10264 10263 10263 10262 10261 10260 10259 10260 10260 10259 10258 10258 10258 10258 10258 10258 10258 10258 10258 10258 10260 10261 10261 10261 10260 10259 10260 10261 10261 10261 10262 10262 10263 10263 10263 10264 10265 10266 10267 10268 10270 10271 10273 10274 10276 10278 10279 10281 10283 10284 10286 10287 10289 10291 10292 10294 10295 10296 10298 10299 10300 10301 10302 10303 10305 10305 10306 10307 10308 10309 10310 10310 10310 10310
10266 10265 10265 10264 10264 10263 10263 10263 10262 10261 10260 10260 10258 10258 10257 10256 10256 10255 10254 10255 10254 10254 10253 10253 10254 10254 10253 10253 10253 10252 10251 10253 10255 10256 10256 10255 10255 10255 10255 10256 10256 10256 10257 10258 10258 10258 10258 10258 10260 10261 10262 10263 10265 10266 10268 10270 10271 10273 10275 10276 10278 10280 10281 10283 10285 10286 10288 10289 10290 10291 10293 10294 10295 10296 10297 10298 10299 10300 10301 10301 10303 10303 10304 10304 10304 10304
10261 10261 10260 10259 10258 10258 10258 10257 10256 10256 10255 10254 10253 10253 10252 10251 10251 10250 10250 10250 10249 10249 10248 10249 10249 10249 10249 10249 10248 10246 10246 10248 10250 10251 10251 10250 10250 10250 10251 10251 10251 10251 10253 10253 10253 10253 10253 10253 10255 10256 10257 10258 10260 10261 10263 10265 10266 10268 10270 10272 10273 10275 10276 10278 10280 10281 10283 10285 10285 10286 10288 10289 10290 10291 10292 10293 10293 10294 10295 10296 10296 10297 10298 10298 10298 10298
10256 10255 10255 10254 10253 10253 10252 10251 10251 10251 10250 10250 10248 10248 10247 10246 10246 10245 10245 10244 10244 10244 10244 10244 10244 10244 10244 10244 10243 10242 10241 10243 10245 10246 10246 10246 10245 10245 10246 10246 10246 10247 10248 10248 10249 10249 10249 10249 10250 10251 10253 10254 10255 10256 10258 10260 10262 10264 10266 10267 10269 10270 10272 10274 10276 10277 10278 10280 10281 10281 10283 10284 10285 10286 10286 10287 10288 10288 10289 10289 10290 10290 10291 10291 10291 10291
10250 10250 10250 10249 10248 10248 10247 10246 10246 10246 10245 10245 10244 10243 10242 10241 10241 10240 10240 10239 10239 10239 10239 10239 10239 10239 10239 10239 10238 10238 10238 10238 10240 10241 10241 10241 10241 10241 10241 10241 10242 10242 10243 10244 10245 10245 10245 10245 10245 10246 10248 10249 10250 10252 10254 10256 10258 10260 10261 10263 10265 10266 10268 10270 10271 10272 10273 10275 10276 10276 10278 10278 10280 10280 10281 10281 10282 10282 10283 10283 10283 10284 10285 10285 10285 10285
10244 10244 10244 10243 10243 10243 10242 10241 10241 10241 10240 10240 10239 10238 10238 10236 10236 10235 10235 10235 10235 10235 10235 10234 10234 10234 10234 10234 10234 10233 10233 10234 10235 10236 10237 10236 10236 10236 10236 10237 10237 10238 10239 10240 10240 10241 10241 10241 10241 10242 10243 10244 10246 10248 10250 10251 10253 10255 10257 10258 10260 10261 10263 10265 10266 10268 10268 10270 10270 10271 10272 10273 10274 10275 10275 10275 10276 10276 10276 10276 10276 10277 10278 10278 10278 10279
10238 10238 10238 10238 10238 10238 10237 10237 10236 10236 10235 10235 10234 10233 10233 10232 10231 10230 10230 10230 10230 10230 10230 10230 10230 10230 10230 10229 10229 10228 10228 10230 10231 10232 10233 10232 10232 10232 10232 10233 10233 10234 10235 10235 10236 10236 10237 10238 10238 10238 10239 10240 10241 10243 10245 10246 10249 10250 10252 10254 10255 10256 10258 10260 10261 10262 10263 10264 10265 10266 10266 10268 10268 10269 10269 10270 10270 10270 10270 10270 10270 10270 10271 10271 10272 10272
10233 10233 10233 10233 10233 10233 10232 10232 10231 10231 10230 10230 10229 10228 10228 10227 10226 10226 10225 10225 10225 10225 10225 10225 10225 10225 10225 10225 10225 10224 10224 10225 10226 10228 10228 10228 10228 10228 10228 10228 10229 10230 10231 10231 10232 10233 10233 10234 10235 10235 10235 10236 10236 10238 10240 10242 10244 10246 10247 10249 10250 10251 10253 10255 10256 10257 10258 10258 10259 10260 10261 10262 10263 10263 10263 10264 10264 10264 10264 10264 10263 10264 10264 10265 10265 10265
10228 10228 10228 10228 10228 10227 10227 10227 10226 10226 10225 10225 10224 10223 10223 10222 10221 10221 10221 10220 10220 10220 10220 10220 10220 10220 10220 10220 10220 10220 10220 10221 10222 10223 10224 10225 10225 10225 10224 10224 10225 10226 10226 10228 10228 10229 10230 10230 10231 10231 10232 10232 10233 10233 10235 10237 10239 10241 10242 10244 10246 10247 10248 10250 10251 10251 10252 10253 10253 10255 10255 10256 10256 10257 10258 10258 10258 10258 10258 10257 10257 10257 10257 10258 10258 10258
10223 10223 10223 10223 10223 10222 10222 10221 10221 10221 10221 10220 10220 10218 10218 10217 10216 10216 10216 10216 10216 10216 10216 10216 10216 10216 10216 10216 10216 10216 10216 10217 10218 10219 10220 10221 10221 10221 10220 10221 10221 10222 10223 10224 10225 10226 10226 10227 10228 10228 10228 10229 10229 10230 10231 10232 10234 10235 10237 10239 10241 10242 10243 10244 10245 10246 10247 10248 10248 10249 10250 10250 10251 10251 10252 10252 10252 10252 10251 10251 10251 10251 10251 10251 10251 10251
10218 10218 10218 10218 10218 10218 10217 10216 10216 10216 10216 10215 10215 10214 10213 10213 10212 10211 10211 10211 10211 10211 10211 10211 10211 10211 10211 10211 10211 10211 10212 10213 10213 10215 10216 10216 10217 10217 10217 10217 10218 10218 10220 10220 10221 10222 10223 10223 10224 10225 10225 10226 10226 10226 10227 10228 10229 10230 10232 10234 10236 10236 10238 10239 10240 10241 10242 10243 10243 10244 10245 10245 10246 10246 10246 10246 10246 10246 10246 10245 10245 10245 10245 10245 10244 10244
10212 10213 10213 10213 10213 10213 10212 10211 10211 10211 10211 10210 10210 10209 10208 10208 10207 10207 10206 10206 10206 10206 10206 10206 10206 10206 10206 10207 10207 10207 10208 10209 10210 10211 10212 10213 10213 10214 10214 10214 10214 10215 10216 10217 10218 10218 10219 10220 10221 10221 10222 10223 10223 10223 10224 10224 10225 10226 10228 10229 10230 10231 10232 10234 10235 10236 10237 10238 10238 10239 10239 10240 10240 10241 10241 10241 10241 10241 10240 10240 10240 10239 10239 10238 10238 10238
10207 10207 10207 10208 10208 10208 10207 10207 10206 10206 10206 10205 10205 10205 10204 10203 10203 10203 10202 10202 10202 10201 10202 10202 10202 10202 10202 10202 10203 10203 10204 10205 10206 10207 10208 10209 10210 10210 10210 10210 10211 10211 10213 10213 10214 10215 10216 10216 10217 10218 10219 10220 10220 10220 10221 10220 10221 10222 10224 10225 10225 10226 10228 10228 10230 10231 10232 10233 10233 10234 10235 10235 10235 10236 10236 10236 10235 10235 10235 10235 10234 10233 10233 10233 10233 10232
10202 10202 10202 10202 10203 10202 10202 10202 10201 10201 10201 10201 10200 10200 10200 10199 10198 10198 10198 10198 10197 10197 10197 10198 10198 10198 10198 10198 10198 10199 10200 10201 10202 10203 10204 10205 10206 10206 10207 10207 10208 10208 10209 10210 10210 10211 10212 10213 10214 10215 10216 10216 10217 10217 10217 10217 10217 10218 10220 10220 10221 10222 10223 10223 10224 10226 10227 10228 10229 10230 10230 10230 10230 10231 10231 10230 10230 10230 10230 10229 10228 10228 10227 10227 10226 10227
10197 10197 10197 10197 10197 10197 10197 10197 10196 10196 10196 10196 10195 10195 10195 10195 10195 10194 10193 10193 10193 10193 10193 10193 10193 10193 10193 10193 10193 10195 10196 10197 10198 10199 10200 10201 10202 10203 10203 10204 10204 10205 10205 10206 10206 10208 10208 10210 10210 10211 10212 10213 10214 10214 10213 10213 10214 10215 10215 10216 10218 10218 10218 10218 10220 10221 10222 10223 10224 10225 10225 10225 10226 10226 10226 10225 10225 10225 10224 10223 10223 10222 10221 10221 10221 10221
10193 10192 10192 10192 10192 10192 10192 10192 10192 10191 10191 10191 10191 10190 10190 10190 10190 10190 10189 10188 10188 10188 10188 10188 10188 10188 10188 10188 10189 10190 10191 10193 10194 10195 10196 10197 10198 10200 10200 10200 10201 10201 10201 10202 10203 10204 10205 10206 10206 10208 10209 10210 10210 10210 10210 10210 10210 10211 10211 10213 10214 10215 10215 10215 10215 10216 10217 10218 10219 10220 10220 10221 10221 10221 10221 10220 10220 10219 10218 10218 10217 10216 10216 10215 10215 10215
10188 10188 10187 10188 10188 10187 10187 10187 10187 10187 10187 10186 10186 10186 10186 10186 10185 10185 10185 10184 10184 10184 10184 10184 10184 10184 10183 10184 10185 10186 10187 10188 10190 10191 10192 10193 10195 10195 10196 10196 10197 10197 10198 10198 10199 10200 10201 10202 10203 10204 10205 10206 10206 10206 10206 10206 10206 10207 10208 10208 10210 10210 10210 10211 10211 10212 10213 10213 10214 10215 10215 10216 10216 10216 10216 10215 10215 10214 10213 10213 10211 10211 10210 10210 10209 10209
10183 10183 10183 10183 10183 10183 10182 10182 10182 10182 10182 10182 10181 10181 10181 10181 10181 10180 10180 10180 10180 10179 10180 10180 10180 10180 10179 10180 10181 10181 10183 10184 10185 10186 10188 10189 10190 10191 10192 10193 10193 10193 10194 10195 10195 10196 10197 10198 10199 10200 10201 10201 10202 10202 10202 10202 10203 10203 10203 10205 10205 10206 10206 10207 10207 10208 10208 10209 10209 10210 10210 10211 10211 10211 10211 10210 10210 10209 10208 10207 10206 10205 10204 10203 10203 10203
10178 10178 10178 10178 10178 10178 10178 10178 10178 10178 10178 10177 10177 10177 10177 10177 10176 10176 10176 10175 10175 10175 10175 10175 10175 10175 10175 10176 10176 10177 10178 10180 10181 10182 10184 10185 10186 10187 10188 10188 10189 10190 10190 10191 10192 10193 10193 10194 10195 10196 10196 10197 10197 10198 10198 10198 10199 10200 10200 10200 10201 10201 10202 10202 10203 10203 10204 10205 10205 10205 10205 10206 10206 10206 10206 10206 10205 10204 10203 10202 10201 10200 10198 10198 10197 10197
10173 10173 10173 10173 10173 10173 10173 10173 10173 10173 10173 10173 10173 10173 10173 10173 10172 10171 10171 10171 10171 10171 10171 10171 10171 10171 10171 10171 10172 10173 10174 10175 10176 10178 10180 10181 10182 10183 10184 10185 10185 10186 10186 10187 10188 10189 10190 10190 10191 10191 10192 10192 10193 10193 10193 10195 10195 10195 10196 10196 10197 10197 10198 10198 10198 10199 10200 10200 10200 10200 10201 10201 10201 10201 10201 10201 10201 10200 10198 10196 10195 10194 10193 10192 10191 10191
10168 10168 10168 10168 10168 10168 10168 10168 10168 10168 10168 10168 10168 10168 10168 10168 10168 10168 10167 10167 10166 10166 10166 10166 10166 10166 10166 10167 10168 10169 10170 10171 10172 10173 10175 10176 10178 10179 10180 10181 10181 10182 10183 10183 10184 10185 10185 10186 10186 10186 10187 10188 10188 10189 10190 10190 10190 10191 10192 10193 10193 10193 10193 10193 10194 10195 10195 10196 10196 10196 10196 10196 10196 10196 10196 10196 10196 10195 10193 10191 10190 10188 10187 10186 10186 10186
10163 10163 10163 10163 10164 10164 10164 10164 10164 10164 10163 10164 10164 10164 10164 10164 10163 10163 10163 10163 10162 10162 10162 10162 10162 10162 10163 10163 10164 10165 10165 10166 10168 10169 10171 10172 10174 10175 10176 10176 10177 10178 10179 10180 10180 10181 10181 10181 10181 10182 10183 10183 10184 10185 10185 10185 10186 10186 10187 10188 10188 10189 10190 10190 10190 10190 10191 10191 10191 10191 10191 10191 10191 10191 10192 10191 10191 10190 10189 10188 10185 10183 10181 10181 10180 10180
10159 10158 10158 10159 10159 10159 10159 10159 10159 10159 10159 10159 10160 10160 10160 10160 10159 10159 10159 10158 10158 10158 10158 10158 10158 10158 10158 10159 10160 10160 10161 10162 10163 10165 10166 10168 10170 10171 10172 10173 10173 10174 10175 10176 10176 10177 10177 10177 10177 10177 10178 10178 10180 10181 10181 10181 10181 10181 10182 10183 10183 10185 10185 10185 10185 10186 10186 10186 10186 10186 10186 10186 10186 10186 10187 10186 10186 10186 10185 10183 10181 10178 10176 10175 10175 10175